BIMS4 Weather Reports


time (UTC)temp
C
wind
direction
speed
KPH
gust
KPH
rain 1hr
cm
rain 24hr
cm
rain mn
cm
humidity
%
barometer
mb
20260505121940 14 276 1.6 9.7 0.00 0.00 0.00 70 1012.3
20260505121440 14 95 1.6 6.4 0.00 0.00 0.00 71 1012.3
20260505120941 14 20 1.6 6.4 0.00 0.00 0.00 70 1012.4
20260505120442 14 297 1.6 11.3 0.00 0.00 0.00 71 1012.2
20260505115935 14 295 3.2 11.3 0.00 0.00 0.00 71 1012.3
20260505115747 14 314 1.6 11.3 0.00 0.00 0.00 71 1012.2
20260505114935 14 296 3.2 12.9 0.00 0.00 0.00 72 1012.3
20260505114434 13 292 3.2 12.9 0.00 0.00 0.00 71 1012.2
20260505113933 14 291 1.6 9.7 0.00 0.00 0.00 71 1012.2
20260505113434 13 314 1.6 6.4 0.00 0.00 0.00 71 1012.3
20260505112934 13 276 1.6 6.4 0.00 0.00 0.00 71 1012.3
20260505112435 13 316 1.6 9.7 0.00 0.00 0.00 72 1012.3
20260505111933 13 284 0.0 9.7 0.00 0.00 0.00 72 1012.4
20260505111431 13 320 0.0 1.6 0.00 0.00 0.00 73 1012.5
20260505110931 13 289 0.0 0.0 0.00 0.00 0.00 75 1012.4
20260505110434 13 281 0.0 3.2 0.00 0.00 0.00 76 1012.4
20260505101923 12 298 0.0 4.8 0.00 0.00 0.00 79 1013.0
20260505101422 11 304 0.0 3.2 0.00 0.00 0.00 80 1012.9
20260505100919 11 313 0.0 3.2 0.00 0.00 0.00 80 1012.9
20260505100419 11 81 0.0 4.8 0.00 0.00 0.00 80 1012.9
20260505100231 11 303 0.0 4.8 0.00 0.00 0.00 80 1012.8
20260505095419 11 79 0.0 4.8 0.00 0.00 0.00 81 1012.8
20260505094922 11 62 0.0 4.8 0.00 0.00 0.00 81 1012.9
20260505094759 11 1 0.0 6.4 0.00 0.00 0.00 82 1012.9
20260505094420 11 291 0.0 6.4 0.00 0.00 0.00 81 1013.0
20260505093709 11 301 0.0 3.2 0.00 0.00 0.00 82 1012.9
20260505092917 11 26 0.0 6.4 0.00 0.00 0.00 83 1013.0
20260505092418 11 58 0.0 6.4 0.00 0.00 0.00 83 1012.9
20260505091913 11 293 0.0 6.4 0.00 0.00 0.00 83 1012.9
20260505091405 11 322 0.0 6.4 0.00 0.00 0.00 83 1012.9
20260505090912 11 62 0.0 3.2 0.00 0.00 0.00 84 1012.9
20260505090405 11 106 0.0 3.2 0.00 0.00 0.00 85 1012.9
20260505085905 10 316 0.0 4.8 0.00 0.00 0.00 86 1012.8
20260505085403 10 76 0.0 6.4 0.00 0.00 0.00 87 1012.8
20260505084903 10 83 0.0 8.0 0.00 0.00 0.00 87 1012.7
20260505084403 10 67 0.0 8.0 0.00 0.00 0.00 87 1012.7
20260505083917 10 51 0.0 4.8 0.00 0.00 0.00 88 1012.7
20260505083403 10 304 0.0 4.8 0.00 0.00 0.00 88 1012.8
20260505082908 10 313 0.0 3.2 0.00 0.00 0.00 89 1012.8
20260505082627 10 326 0.0 3.2 0.00 0.00 0.00 89 1012.9
20260505081903 10 68 0.0 3.2 0.00 0.00 0.00 89 1013.0
20260505081403 10 330 0.0 6.4 0.00 0.00 0.00 90 1013.0
20260505080902 10 114 0.0 6.4 0.00 0.00 0.00 90 1013.0
20260505080402 10 305 0.0 3.2 0.00 0.00 0.00 90 1012.9
20260505075903 10 300 0.0 3.2 0.00 0.00 0.00 91 1013.0
20260505075417 10 311 0.0 3.2 0.00 0.00 0.00 91 1013.0
20260505075205 9 348 0.0 3.2 0.00 0.00 0.00 91 1013.0
20260505074404 9 291 0.0 3.2 0.00 0.00 0.00 91 1013.1
20260505073901 9 288 0.0 3.2 0.00 0.00 0.00 92 1013.2
20260505073651 9 69 0.0 3.2 0.00 0.00 0.00 92 1013.1
20260505072857 9 45 0.0 4.8 0.00 0.00 0.00 92 1013.1
20260505072356 9 101 0.0 4.8 0.00 0.00 0.00 92 1013.1
20260505071854 9 89 0.0 4.8 0.00 0.00 0.00 92 1013.2
20260505071355 9 64 0.0 4.8 0.00 0.00 0.00 92 1013.1
20260505070854 9 68 0.0 4.8 0.00 0.00 0.00 92 1013.2
20260505070702 9 276 0.0 3.2 0.00 0.00 0.00 92 1013.2
20260505065855 9 75 0.0 3.2 0.00 0.00 0.00 92 1013.2
20260505065351 9 79 0.0 3.2 0.00 0.00 0.00 92 1013.3
20260505064856 9 16 0.0 4.8 0.00 0.00 0.00 92 1013.4
20260505064351 9 64 0.0 4.8 0.00 0.00 0.00 92 1013.4
20260505063854 9 71 0.0 1.6 0.00 0.00 0.00 92 1013.4
20260505063352 9 81 0.0 8.0 0.00 0.00 0.00 92 1013.5
20260505062855 9 74 0.0 8.0 0.00 0.00 0.00 92 1013.4
20260505062350 9 74 0.0 4.8 0.00 0.00 0.00 92 1013.4
20260505061851 9 64 0.0 4.8 0.00 0.00 0.00 92 1013.3
20260505061351 9 68 0.0 4.8 0.00 0.00 0.00 91 1013.3
20260505060851 9 63 0.0 3.2 0.00 0.00 0.00 91 1013.2
20260505060347 9 35 0.0 4.8 0.00 0.00 0.00 91 1013.1
20260505055848 9 61 0.0 4.8 0.00 0.00 0.00 91 1013.2
20260505055354 9 89 0.0 3.2 0.00 0.00 0.00 91 1013.1
20260505054842 9 73 0.0 6.4 0.00 0.00 0.00 91 1013.1
20260505054639 9 86 0.0 6.4 0.00 0.00 0.00 90 1013.0
20260505053840 9 70 0.0 3.2 0.00 0.00 0.00 90 1013.0
20260505053341 9 359 0.0 3.2 0.00 0.00 0.00 90 1013.0
20260505053137 9 307 0.0 3.2 0.00 0.00 0.00 90 1012.9
20260505052340 9 310 0.0 3.2 0.00 0.00 0.00 90 1012.8
20260505051836 9 319 0.0 3.2 0.00 0.00 0.00 90 1012.9
20260505051336 9 303 0.0 3.2 0.00 0.00 0.00 90 1012.8
20260505050833 9 57 0.0 3.2 0.00 0.00 0.00 90 1012.9
20260505050658 9 9 0.0 3.2 0.00 0.00 0.00 90 1012.9
20260505041330 10 65 0.0 3.2 0.00 0.00 0.00 89 1012.8
20260505040831 10 58 0.0 1.6 0.00 0.00 0.00 89 1012.9
20260505040329 10 81 0.0 1.6 0.00 0.00 0.00 89 1012.9
20260505035830 10 76 0.0 1.6 0.00 0.00 0.00 89 1013.0
20260505035328 10 83 0.0 1.6 0.00 0.00 0.00 89 1013.0
20260505034829 10 53 0.0 1.6 0.00 0.00 0.00 89 1013.0
20260505034329 10 49 0.0 3.2 0.00 0.00 0.00 89 1012.9
20260505033846 10 40 0.0 3.2 0.00 0.00 0.00 89 1012.8
20260505033325 10 328 0.0 1.6 0.00 0.00 0.00 89 1012.9
20260505032823 10 101 0.0 0.0 0.00 0.00 0.00 89 1012.9
20260505032320 10 82 0.0 0.0 0.00 0.00 0.00 89 1012.9
20260505031818 10 47 0.0 1.6 0.00 0.00 0.00 89 1012.8
20260505031615 10 51 0.0 3.2 0.00 0.00 0.00 89 1012.8
20260505030814 10 78 0.0 3.2 0.00 0.00 0.00 89 1012.9
20260505030313 10 54 0.0 4.8 0.00 0.00 0.00 89 1012.9
20260505025812 10 61 0.0 4.8 0.00 0.00 0.00 89 1012.7
20260505025312 10 298 0.0 4.8 0.00 0.00 0.00 89 1012.8
20260505024816 10 150 0.0 4.8 0.00 0.00 0.00 89 1012.9
20260505024320 10 308 0.0 3.2 0.00 0.00 0.00 89 1012.9
20260505023817 10 305 0.0 1.6 0.00 0.00 0.00 89 1012.9
20260505023317 10 22 0.0 4.8 0.00 0.00 0.00 89 1012.9
20260505022812 10 44 0.0 4.8 0.00 0.00 0.00 89 1013.0
20260505022314 10 93 0.0 4.8 0.00 0.00 0.00 89 1013.1
20260505021808 10 102 0.0 1.6 0.00 0.00 0.00 89 1013.2
20260505021316 10 106 0.0 1.6 0.00 0.00 0.00 89 1013.2
20260505020804 10 106 0.0 4.8 0.00 0.00 0.00 89 1013.1
20260505020309 10 341 0.0 4.8 0.00 0.00 0.00 89 1013.2
20260505015806 10 42 0.0 3.2 0.00 0.00 0.00 89 1013.3
20260505015556 10 305 0.0 4.8 0.00 0.00 0.00 89 1013.2
20260505014803 10 316 0.0 4.8 0.00 0.00 0.00 89 1013.3
20260505014313 10 317 0.0 6.4 0.00 0.00 0.00 89 1013.3
20260505014112 10 110 1.6 6.4 0.00 0.00 0.00 89 1013.4
20260505013302 10 296 0.0 6.4 0.00 0.00 0.00 89 1013.4
20260505012802 10 275 0.0 3.2 0.00 0.00 0.00 89 1013.3
20260505012304 10 313 0.0 1.6 0.00 0.00 0.00 89 1013.4
20260505011804 10 287 0.0 3.2 0.00 0.00 0.00 89 1013.5
20260505011302 10 295 0.0 3.2 0.00 0.00 0.00 89 1013.5
20260505010817 10 293 0.0 3.2 0.00 0.00 0.00 89 1013.5
20260505010302 10 293 0.0 3.2 0.00 0.00 0.00 89 1013.6
20260505005805 10 324 0.0 3.2 0.00 0.00 0.00 89 1013.7
20260505005303 10 311 0.0 1.6 0.00 0.00 0.00 89 1013.6
20260505004802 10 297 0.0 4.8 0.00 0.00 0.00 89 1013.7
20260505004542 10 303 0.0 4.8 0.00 0.00 0.00 89 1013.8
20260505003802 10 292 0.0 3.2 0.00 0.00 0.00 89 1013.7
20260505003538 10 294 0.0 3.2 0.00 0.00 0.00 89 1013.7
20260505002844 11 278 0.0 3.2 0.00 0.00 0.00 89 1013.8
20260505002834 11 288 0.0 3.2 0.00 0.00 0.00 89 1013.7
20260505001758 11 291 0.0 3.2 0.00 0.00 0.00 89 1013.8
20260505001255 11 330 1.6 4.8 0.00 0.00 0.00 89 1013.9
20260505000854 11 79 0.0 4.8 0.00 0.00 0.00 89 1013.9
20260505000841 11 301 0.0 4.8 0.00 0.00 0.00 89 1013.8
20260504235758 11 303 0.0 4.8 0.00 0.00 0.00 89 1013.9
20260504235556 11 309 0.0 3.2 0.00 0.00 0.00 89 1014.0
20260504234749 11 285 0.0 4.8 0.00 0.00 0.00 88 1014.1
20260504234248 11 283 0.0 4.8 0.00 0.00 0.00 89 1014.0
20260504233746 11 309 0.0 8.0 0.00 0.00 0.00 88 1014.1
20260504233245 11 291 0.0 8.0 0.00 0.00 0.00 89 1014.1
20260504232742 11 303 0.0 3.2 0.00 0.00 0.00 89 1014.1
20260504232241 11 282 0.0 3.2 0.00 0.00 0.00 88 1014.1
20260504231738 11 284 0.0 3.2 0.00 0.00 0.00 88 1014.1
20260504231242 11 286 0.0 3.2 0.00 0.00 0.00 88 1014.1
20260504231020 11 288 0.0 3.2 0.00 0.00 0.00 88 1014.1
20260504230248 11 293 0.0 3.2 0.00 0.00 0.00 88 1014.1
20260504225734 11 297 0.0 3.2 0.00 0.00 0.00 88 1014.2
20260504225329 11 288 0.0 4.8 0.00 0.00 0.00 89 1014.2
20260504225314 11 297 0.0 3.2 0.00 0.00 0.00 88 1014.2
20260504224544 11 307 0.0 4.8 0.00 0.00 0.00 88 1014.3
20260504223732 11 289 0.0 3.2 0.00 0.00 0.00 89 1014.3
20260504223233 11 308 0.0 3.2 0.00 0.00 0.00 88 1014.3
20260504223047 11 320 0.0 1.6 0.00 0.00 0.00 88 1014.3
20260504222230 12 93 0.0 1.6 0.00 0.00 0.00 88 1014.3
20260504221730 12 276 0.0 3.2 0.00 0.00 0.00 88 1014.3
20260504221226 12 314 0.0 4.8 0.00 0.00 0.00 89 1014.3
20260504220720 12 285 0.0 4.8 0.00 0.00 0.00 88 1014.5
20260504220216 12 293 0.0 1.6 0.00 0.00 0.00 89 1014.5
20260504215708 12 286 0.0 1.6 0.00 0.00 0.00 89 1014.5
20260504215205 12 289 0.0 1.6 0.00 0.00 0.00 89 1014.6
20260504214953 12 277 0.0 3.2 0.00 0.00 0.00 89 1014.6
20260504214205 12 68 0.0 3.2 0.00 0.00 0.00 89 1014.6
20260504213705 12 298 0.0 3.2 0.00 0.00 0.00 89 1014.6
20260504213205 12 74 0.0 3.2 0.00 0.00 0.00 89 1014.6
20260504212705 12 301 0.0 3.2 0.00 0.00 0.00 89 1014.7
20260504212205 12 309 0.0 3.2 0.00 0.00 0.00 89 1014.7
20260504211705 12 287 0.0 3.2 0.00 0.00 0.00 89 1014.7
20260504211512 12 312 0.0 3.2 0.00 0.00 0.00 89 1014.7
20260504210702 12 285 0.0 3.2 0.00 0.00 0.00 89 1014.6
20260504210203 12 287 0.0 4.8 0.00 0.00 0.00 89 1014.7
20260504205927 12 296 0.0 4.8 0.00 0.00 0.00 89 1014.7
20260504205423 12 303 0.0 4.8 0.00 0.00 0.00 89 1014.7
20260504204710 12 309 0.0 1.6 0.00 0.00 0.00 89 1014.7
20260504204203 12 302 0.0 4.8 0.00 0.00 0.00 89 1014.6
20260504203949 12 303 0.0 4.8 0.00 0.00 0.00 89 1014.7
20260504203205 12 309 0.0 4.8 0.00 0.00 0.00 89 1014.6
20260504202702 13 316 0.0 4.8 0.00 0.00 0.00 89 1014.6
20260504202216 13 297 0.0 4.8 0.00 0.00 0.00 89 1014.6
20260504201956 13 286 0.0 4.8 0.00 0.00 0.00 89 1014.6
20260504201214 13 291 0.0 4.8 0.00 0.00 0.00 89 1014.5
20260504200704 13 301 0.0 3.2 0.00 0.00 0.00 89 1014.5
20260504200205 13 298 0.0 4.8 0.00 0.00 0.00 89 1014.6
20260504195704 13 326 0.0 4.8 0.00 0.00 0.00 89 1014.5
20260504195209 13 235 0.0 4.8 0.00 0.00 0.00 88 1014.4
20260504194705 13 297 0.0 4.8 0.00 0.00 0.00 88 1014.4
20260504194204 13 294 0.0 1.6 0.00 0.00 0.00 88 1014.4
20260504193706 13 299 0.0 6.4 0.00 0.00 0.00 88 1014.2
20260504193446 13 293 0.0 6.4 0.00 0.00 0.00 89 1014.3
20260504192704 13 280 0.0 3.2 0.00 0.00 0.00 89 1014.2
20260504192204 13 287 0.0 3.2 0.00 0.00 0.00 88 1014.1
20260504191704 13 311 0.0 3.2 0.00 0.00 0.00 88 1014.2
20260504191450 13 253 0.0 6.4 0.00 0.00 0.00 88 1014.2
20260504190708 13 318 0.0 6.4 0.00 0.00 0.00 88 1014.2
20260504190205 13 297 0.0 4.8 0.00 0.00 0.00 88 1014.2
20260504185707 14 318 0.0 4.8 0.00 0.00 0.00 88 1014.2
20260504185212 14 308 0.0 4.8 0.00 0.00 0.00 88 1014.2
20260504184708 14 265 0.0 4.8 0.00 0.00 0.00 88 1014.2
20260504184443 14 292 0.0 3.2 0.00 0.00 0.00 88 1014.2
20260504183706 14 262 0.0 4.8 0.00 0.00 0.00 88 1014.2
20260504183202 14 289 1.6 6.4 0.00 0.00 0.00 88 1014.2
20260504183003 14 297 1.6 6.4 0.00 0.00 0.00 88 1014.2
20260504182202 14 280 1.6 4.8 0.00 0.00 0.00 88 1014.1
20260504181702 14 275 0.0 4.8 0.00 0.00 0.00 87 1014.2
20260504181204 14 292 0.0 4.8 0.00 0.00 0.00 87 1014.1
20260504180928 14 293 1.6 4.8 0.00 0.00 0.00 87 1014.1
20260504180204 14 304 0.0 4.8 0.00 0.00 0.00 87 1014.0
20260504175957 15 316 0.0 4.8 0.00 0.00 0.00 88 1014.1
20260504175514 15 308 1.6 6.4 0.00 0.00 0.00 88 1014.0
20260504174715 15 282 1.6 8.0 0.00 0.00 0.00 87 1014.0
20260504174204 15 327 1.6 8.0 0.00 0.00 0.00 87 1014.1
20260504174026 15 282 1.6 6.4 0.00 0.00 0.00 87 1014.0
20260504173218 15 313 0.0 6.4 0.00 0.00 0.00 87 1014.0
20260504172703 15 260 1.6 6.4 0.00 0.00 0.00 87 1014.0
20260504172219 15 310 1.6 6.4 0.00 0.00 0.00 87 1014.0
20260504172041 15 299 1.6 11.3 0.00 0.00 0.00 87 1014.0
20260504172037 15 310 0.0 4.8 0.00 0.00 0.00 87 1014.1
20260504170659 15 259 1.6 11.3 0.00 0.00 0.00 87 1014.0
20260504170158 15 297 0.0 9.7 0.00 0.00 0.00 87 1014.1
20260504160155 16 310 1.6 6.4 0.00 0.03 0.00 84 1014.1
20260504150650 17 297 0.0 4.8 0.00 0.03 0.00 83 1014.0
20260504150151 17 298 0.0 4.8 0.00 0.03 0.00 83 1014.0
20260504141140 17 299 1.6 6.4 0.00 0.03 0.00 81 1014.2
20260504140640 17 294 0.0 4.8 0.00 0.03 0.00 81 1014.2
20260504140138 17 306 0.0 6.4 0.00 0.03 0.00 81 1014.2
20260504130621 18 110 1.6 6.4 0.00 0.10 0.00 81 1014.4
20260504130114 18 305 0.0 6.4 0.00 0.10 0.00 81 1014.3